Presure
138 115 143 138 120 144 135 138 154 129 121 145 122 131 138 151 99 150 164 171 189 221 249 181 236 257 276 248 245 248 239 174 201 212 185 185 189 174 170 170 170 156 162 120 144
116 130 108 135 133 118 135 147 126 118 137 125 142 160 128 149 146 138 183 150 158 226 244 236 282 256 252 265 243 241 183 214 194 187 206 189 180 168 179 171 174 169 159 178 183
138 121 129 133 152 140 131 117 133 134 128 117 121 144 142 151 150 148 165 161 170 222 251 232 248 266 243 286 253 234 221 216 191 166 190 197 187 182 186 178 168 177 168 179 128
110 147 130 129 151 154 131 130 140 132 143 142 128 133 143 148 152 148 155 156 179 129 277 151 228 249 262 255 269 239 233 212 182 203 205 174 160 181 178 171 180 174 119 170 173
117 115 148 140 152 116 118 134 133 98 136 148 130 143 130 137 144 138 144 179 149 171 213 193 226 227 301 267 266 244 235 221 210 212 195 197 189 179 181 169 183 184 176 179 173
104 144 125 120 123 126 127 114 140 139 133 134 141 109 140 139 141 140 161 166 137 175 218 223 195 249 221 196 251 245 239 253 224 206 164 192 190 190 190 192 179 172 172 168 121
136 131 122 146 123 147 119 154 140 131 110 134 130 122 145 144 139 141 129 159 127 190 193 227 211 268 212 209 284 244 235 232 263 250 202 189 194 198 189 164 185 188 163 164 176
124 144 126 103 138 126 135 144 120 134 123 118 148 119 141 152 137 125 143 165 149 179 198 209 214 243 207 201 222 251 162 199 217 226 223 239 200 196 198 182 180 197 159 182 179
128 134 127 127 102 128 137 125 146 136 123 119 137 139 128 146 121 151 141 148 174 147 160 194 214 196 215 234 240 218 207 185 195 193 205 185 231 194 174 169 158 161 187 158 177
117 145 141 132 114 135 115 121 123 112 125 120 129 128 125 143 144 132 152 124 168 165 161 176 188 203 172 206 206 167 229 209 255 224 228 194 199 206 212 203 203 214 173 169 191
145 122 118 115 109 135 137 106 135 110 126 124 107 142 133 121 137 141 150 154 140 169 180 187 148 184 196 173 206 191 198 212 216 200 192 191 206 228 240 265 247 245 204 222 210
124 120 140 127 139 120 120 127 132 128 119 124 139 147 129 120 125 141 121 150 107 154 144 158 178 177 189 198 179 204 175 205 180 200 193 195 182 198 209 223 235 224 240 239 245
145 141 125 167 133 124 159 101 127 122 140 142 110 125 125 131 143 146 123 146 133 152 165 178 172 186 189 185 202 205 185 171 202 184 199 190 194 226 250 239 212 221 250 224 247
169 133 128 122 131 133 127 103 137 150 139 140 110 158 134 129 138 137 147 143 133 145 159 169 169 183 183 173 200 197 187 196 200 182 198 172 197 194 200 162 185 204 215 243 255
120 140 164 138 175 121 146 135 154 128 159 123 157 143 131 131 138 149 149 139 137 164 152 177 102 178 179 178 194 187 190 194 184 197 206 217 200 189 204 207 216 249 194 224 248
136 169 119 127 140 159 132 162 105 160 119 160 159 151 141 140 122 138 145 144 163 157 160 145 149 176 171 169 180 187 195 185 197 193 191 185 200 208 196 196 208 232 255 236 237
146 156 137 132 168 121 127 102 140 159 130 148 150 153 148 133 141 147 153 149 146 158 185 165 171 175 171 177 173 170 181 183 185 188 191 186 205 191 204 195 197 215 233 259 226
174 117 176 156 148 145 133 153 156 171 168 156 163 150 144 139 136 140 151 151 159 158 168 155 176 175 176 179 174 190 194 186 170 176 197 193 193 202 202 197 197 203 220 222 241
184 156 126 163 136 140 158 182 163 129 168 156 147 156 143 112 155 125 139 151 162 167 165 159 171 174 169 171 176 187 176 186 173 164 178 177 182 197 200 197 189 204 216 222 265
191 169 141 166 152 168 156 166 136 130 135 173 161 153 146 146 145 144 146 143 163 173 160 159 175 173 169 169 175 183 165 176 185 177 176 195 176 201 194 204 199 191 210 212 231
138 158 158 88 187 172 139 175 151 144 175 136 138 157 143 157 132 116 160 149 174 183 159 162 165 176 168 168 173 179 177 177 185 173 182 183 184 193 201 197 193 203 196 211 220
211 194 98 185 177 176 176 183 170 175 137 176 153 137 142 144 164 145 150 168 182 161 141 170 158 171 166 167 174 179 174 177 183 184 182 191 180 187 178 197 195 194 209 193 216
192 190 188 190 177 172 180 147 177 177 166 160 155 117 144 151 137 159 143 192 177 162 168 149 184 170 167 175 177 180 179 187 168 182 176 183 187 184 190 192 205 193 207 195 214
196 188 186 148 149 176 166 164 148 171 154 158 165 182 143 168 156 148 150 182 165 166 169 145 174 174 169 174 173 176 176 163 173 178 175 185 187 178 188 187 203 189 195 198 210
201 204 198 181 145 176 162 160 168 172 158 194 166 159 158 167 147 168 191 168 169 167 164 165 181 177 174 163 169 173 184 177 183 170 176 182 183 187 187 179 196 205 209 203 208
204 185 180 172 165 167 175 167 162 172 204 191 158 176 176 172 178 161 188 173 159 164 168 150 177 178 170 169 172 173 177 192 175 177 181 140 185 177 179 185 187 199 193 205 211
187 183 179 189 188 183 177 173 172 176 141 161 177 139 142 174 161 187 177 167 166 164 166 169 171 169 173 175 165 174 177 185 175 167 175 174 179 182 180 183 195 195 201 203 193
Wind_Speed
56 39 54 51 37 55 46 51 60 40 40 58 35 33 43 68 37 62 71 77 72 46 45 24 22 7 18 33 41 48 53 36 51 67 48 56 65 49 48 56 59 61 65 47 52
41 51 32 50 49 34 50 61 31 31 50 52 54 74 36 67 66 45 78 60 60 41 42 40 16 6 4 26 37 48 30 54 53 44 66 59 56 41 54 53 68 67 59 64 62
55 43 54 53 57 57 45 27 46 54 45 30 33 59 56 65 66 62 74 71 74 30 42 36 38 10 3 30 34 44 50 55 51 40 45 63 60 59 66 59 53 70 62 68 60
41 60 54 51 59 57 47 44 49 46 65 60 33 44 62 65 70 62 69 64 78 16 35 27 28 36 2 12 30 39 46 52 40 55 64 51 34 59 61 60 64 70 41 59 62
46 47 60 55 60 37 37 45 52 26 55 63 38 62 36 45 64 51 48 78 58 77 50 24 31 30 17 14 24 33 41 49 53 59 49 61 58 50 65 54 73 75 69 71 67
42 66 52 43 43 50 52 33 62 63 48 49 61 31 60 54 55 54 73 73 49 69 53 47 17 34 30 20 13 30 34 37 42 50 32 53 58 62 63 73 65 56 68 61 50
73 59 49 67 47 63 39 62 61 50 28 52 43 31 69 69 51 59 28 70 34 64 55 47 39 32 22 24 23 23 25 16 24 26 53 45 57 68 65 42 59 77 50 54 74
59 71 59 37 68 52 61 64 39 61 34 30 68 38 67 72 54 44 63 70 52 68 59 57 41 37 17 20 32 20 9 19 13 13 11 29 64 65 68 53 55 71 67 78 74
65 70 62 56 37 54 60 45 62 60 39 33 54 56 45 71 42 74 61 56 73 54 68 51 52 35 40 35 21 19 12 5 9 3 4 20 20 37 56 58 55 57 80 66 70
54 78 74 68 42 60 39 43 47 36 50 38 52 50 46 68 71 42 69 27 72 69 67 47 48 55 37 35 30 23 19 3 4 7 14 13 17 26 40 54 62 52 65 64 85
84 60 53 43 36 69 70 36 60 34 53 50 32 66 66 40 62 69 70 72 48 69 67 58 27 49 43 30 30 23 24 20 16 10 9 14 16 19 22 35 40 48 57 46 70
65 58 77 65 78 45 49 53 60 55 42 51 63 66 59 41 49 70 27 69 26 65 55 50 46 42 48 42 29 26 15 18 14 9 13 15 22 20 23 23 28 34 36 41 50
72 90 65 73 63 45 77 31 52 52 70 60 36 55 53 66 72 73 28 65 39 67 63 57 59 50 44 38 33 32 18 15 15 7 18 17 14 31 33 28 26 25 33 38 41
82 79 58 53 73 72 47 38 53 71 68 69 37 59 69 58 72 68 73 66 44 65 64 60 61 51 46 34 45 38 31 28 30 17 29 25 23 28 31 45 42 31 30 34 37
65 90 76 82 72 57 82 71 70 54 60 46 59 67 66 66 73 71 73 61 46 63 67 54 39 50 50 43 49 37 33 33 22 38 34 41 41 26 37 40 42 41 37 37 39
85 83 61 70 68 66 63 50 36 60 48 57 58 61 68 68 43 71 73 69 62 62 62 62 51 49 52 41 48 46 43 35 37 35 38 31 43 46 41 42 45 56 41 40 39
92 88 79 74 70 54 60 36 47 51 53 47 64 60 61 69 72 75 71 69 56 62 54 59 57 52 51 52 46 34 41 39 40 38 40 36 48 44 46 43 43 53 61 46 45
94 59 81 71 68 72 78 58 67 58 53 58 56 56 66 63 70 73 72 68 65 64 59 60 54 54 51 53 50 53 51 45 32 33 47 44 43 54 49 47 48 52 58 58 51
92 93 72 77 81 80 63 50 60 64 56 59 67 58 68 36 66 38 64 68 65 64 59 62 57 54 56 54 53 55 47 50 40 34 42 40 42 54 55 50 44 55 62 65 55
85 92 78 85 72 78 64 64 67 69 81 57 55 57 68 68 70 67 68 70 64 61 61 63 56 56 56 56 54 56 41 47 50 45 44 53 42 61 51 58 56 47 65 59 70
92 77 74 40 71 70 60 66 75 72 60 52 78 53 72 64 54 36 63 69 63 54 63 57 58 52 58 57 56 58 55 53 51 46 51 50 51 60 65 57 52 65 55 69 71
77 74 43 72 72 71 73 58 61 60 84 63 61 42 73 74 59 74 71 64 58 60 62 55 63 58 61 59 59 58 54 54 54 54 57 61 50 58 52 66 62 59 74 55 77
69 73 68 64 64 68 59 77 66 60 72 54 56 40 74 52 64 69 70 55 54 62 56 66 47 63 62 59 61 63 59 60 50 56 57 57 57 59 67 70 78 67 76 63 84
69 69 65 61 59 68 66 65 75 71 73 68 65 61 63 61 66 75 59 52 60 58 57 58 58 63 59 58 60 60 62 51 55 58 57 62 60 54 70 69 81 65 66 70 81
68 63 60 55 73 69 68 65 68 75 63 52 65 67 64 65 74 68 57 61 57 56 60 59 55 62 57 53 58 63 65 61 62 58 61 63 63 68 73 60 80 87 86 79 83
57 58 62 69 71 70 69 66 72 72 55 52 58 57 60 66 64 64 53 58 65 56 58 62 59 62 58 56 59 64 63 64 60 61 65 53 69 59 64 72 71 87 74 89 89
69 73 71 72 70 67 70 67 70 63 56 56 55 69 73 64 68 59 59 60 59 58 60 61 63 60 62 59 55 64 66 64 62 61 67 65 70 70 70 74 88 86 90 91 71
Wind_Direction
270 266 279 283 280 294 298 303 311 307 302 319 308 336 337 334 311 344 350 353 358 15 25 14 22 74 180 202 197 194 183 197 196 187 204 207 192 224 228 223 221 231 241 252 240
262 272 265 281 287 283 298 301 298 299 312 312 325 324 336 334 334 341 348 349 359 13 26 20 41 70 158 200 204 198 203 194 198 196 195 207 214 226 212 224 215 227 252 239 236
260 267 278 279 281 289 294 283 303 305 307 296 305 326 335 330 337 341 345 353 360 18 19 24 29 56 204 190 202 209 196 189 197 206 209 204 210 217 211 219 238 220 240 234 246
253 263 273 278 277 283 291 295 297 303 306 311 329 328 328 332 332 341 343 355 356 321 33 355 41 32 143 190 194 204 205 201 205 203 204 210 216 223 224 223 228 221 246 246 249
260 262 268 272 274 273 281 285 296 279 306 309 326 320 332 339 332 346 339 350 355 357 12 23 33 49 80 170 188 204 213 204 208 200 220 214 222 229 225 237 223 222 236 234 248
248 263 267 265 273 279 278 281 292 297 305 311 314 305 322 330 332 340 339 344 346 356 8 18 32 42 56 357 205 202 217 218 215 220 230 227 227 230 229 222 236 239 244 255 258
259 258 262 268 269 275 279 284 287 294 285 309 320 313 316 321 327 337 339 342 321 357 356 19 20 59 57 64 186 213 216 223 238 241 225 234 232 227 235 240 240 229 256 256 247
256 258 262 254 268 270 275 279 288 290 299 304 304 310 315 316 326 310 337 341 338 353 358 14 19 33 29 33 44 197 1 60 360 315 283 244 234 235 234 255 261 238 245 244 252
253 255 262 259 257 268 273 283 281 286 300 304 309 310 318 314 309 322 333 338 343 350 353 2 18 16 27 40 70 65 55 140 19 87 295 265 262 244 241 242 244 246 252 248 256
249 251 255 261 259 267 271 281 285 281 296 301 307 304 314 311 315 316 327 325 340 342 347 346 6 11 349 26 36 347 60 18 170 230 265 246 240 247 249 249 253 266 252 252 256
243 249 254 255 251 267 269 272 277 279 293 298 297 300 306 319 316 318 321 328 330 339 341 346 327 1 13 348 26 21 30 40 31 6 305 302 314 312 293 280 277 278 259 273 260
248 248 249 260 259 263 262 274 276 281 291 295 295 294 306 316 312 314 327 325 291 334 347 327 343 351 1 6 346 23 339 18 321 13 329 328 279 301 300 302 296 281 280 275 273
245 244 250 248 255 252 263 264 273 282 276 287 292 301 304 308 305 309 326 323 319 330 334 332 336 341 354 356 1 11 351 305 15 271 338 305 303 358 351 325 305 306 294 279 278
243 243 245 248 258 261 263 266 272 270 275 278 291 289 297 306 303 311 311 319 316 328 329 330 330 337 344 342 358 356 352 3 4 312 352 334 340 331 337 291 290 306 303 299 288
237 239 249 248 256 252 257 267 269 276 275 283 282 285 296 301 300 302 307 320 313 324 323 320 300 331 335 343 348 346 348 354 337 359 351 1 350 336 347 343 340 341 301 315 311
241 244 244 250 247 255 257 263 265 271 275 277 282 284 288 293 288 302 304 311 318 318 319 331 312 326 328 328 339 341 347 345 353 351 351 342 355 354 344 341 343 354 331 326 319
239 241 241 244 246 253 253 258 269 269 273 277 277 283 285 292 295 296 300 306 309 315 313 319 315 319 322 328 333 327 336 341 344 343 346 341 356 344 348 342 338 347 351 334 328
242 235 241 232 233 244 254 251 264 265 269 275 281 280 282 284 294 295 298 304 310 311 313 318 310 314 322 325 328 336 342 339 321 332 345 342 344 350 346 343 341 342 348 345 336
236 237 239 240 239 242 256 251 267 265 273 271 272 276 278 270 286 285 303 302 307 309 309 312 309 311 315 319 324 329 328 335 328 307 332 329 336 346 345 341 336 342 346 347 343
228 240 232 247 233 250 251 242 260 266 266 276 270 273 277 281 285 289 294 301 304 304 305 309 305 308 309 315 321 324 315 326 332 328 325 343 325 348 339 344 340 334 343 343 349
227 229 236 221 238 255 240 254 261 255 268 265 269 273 273 278 281 270 291 296 300 296 301 305 308 303 304 312 318 321 320 323 330 324 332 333 332 344 343 339 336 341 335 344 346
212 223 212 237 247 252 256 250 253 255 260 271 261 269 270 276 283 283 287 295 290 295 308 295 305 298 302 310 315 319 317 320 328 331 331 339 329 337 324 339 337 337 340 333 343
215 220 225 231 241 246 236 240 255 251 266 261 262 262 268 276 285 280 290 284 285 290 289 304 297 295 302 307 314 317 318 323 321 328 323 332 335 333 342 338 339 336 338 337 342
215 228 233 237 222 245 245 254 245 260 258 264 265 277 267 280 275 278 290 277 282 285 287 308 292 293 301 308 313 315 316 317 319 320 321 330 335 326 339 334 338 331 333 336 339
212 214 215 223 225 240 250 246 255 260 260 261 265 261 275 271 274 276 271 272 281 280 286 289 292 291 300 307 310 313 317 318 320 313 322 328 332 336 335 326 335 338 337 336 336
199 216 221 230 236 239 240 250 253 257 252 250 253 267 268 267 266 274 267 268 280 278 280 301 290 292 299 305 310 311 316 320 314 320 324 304 329 325 326 330 330 334 333 335 335
214 213 228 224 227 232 237 244 237 244 257 245 255 268 269 261 268 263 263 268 273 276 281 284 288 294 299 303 306 311 317 318 313 314 319 322 326 328 326 329 332 332 332 334 327